Weather Roundup
Issued by NWS

Home | Current Version | Previous Version | Graphics & Text | Print | Product List | Glossary Off
Versions: 1 2 3 4 5 6 7 8 9 10 11 12 13 14 15 16 17 18 19 20 21 22 23 24 25 26 27 28 29 30 31 32 33 34 35 36 37 38 39 40 41 42 43 44 45 46 47 48 49 50

764
NZUS93 KARX 261259
HRRWXR

CURRENT HOURLY OBSERVATIONS ACROSS
MUCH OF THE UPPER MISSISSIPPI VALLEY
NATIONAL WEATHER SERVICE LA CROSSE WI
800 AM CDT SUN MAR 26 2017


...SOUTHEAST MINNESOTA...


CITY           SKY/WX    TMP DP  RH WIND       PRES   REMARKS
ROCHESTER      FOG       34  34 100 NE8       29.89S VSB 1/2 WCI  27
ROCHESTER/MAYO CLOUDY    35  35 100 N5        29.90S WCI  31
WINONA         CLOUDY    36  34  93 CALM      29.93S
AUSTIN         CLOUDY    36  34  93 NE6       29.89S FOG     WCI  31
ALBERT LEA     DRZL/FOG  34  34 100 NE7       29.90S VSB 1/4 WCI  28
DODGE CENTER   FOG       34  34 100 NE7       29.90S VSB 1/2 WCI  28
PRESTON        CLOUDY    34  33  96 NE7       29.89R FOG     WCI  28
OWATONNA       FOG       36  34  93 NE5       29.92R VSB 1/2 WCI  32
FARIBAULT      FOG       36  36 100 N3        29.93S VSB 3/4
$$

...ELSEWHERE IN MINNESOTA...


CITY           SKY/WX    TMP DP  RH WIND       PRES   REMARKS
MINNEAPOLIS    CLOUDY    37  33  85 VRB6      29.95S WCI  32
INTNL FALLS    CLOUDY    32  28  85 SE6       30.00F WCI  26
DULUTH         FRZ DRZL  32  32 100 E8        29.98S FOG     WCI  25
RED WING       CLOUDY    36  36 100 E3        29.93S FOG
REDWOOD FALLS  CLOUDY    37  35  92 N5        29.95R FOG     WCI  33
MANKATO        MIX PCPN  36  35  96 NE7       29.93F FOG     WCI  30
WORTHINGTON    FOG       35  32  88 N6        29.92  VSB 3/4 WCI  30
FAIRMONT       CLOUDY    36  35  96 N8        29.92S FOG     WCI  30
$$

...SOUTHWEST WISCONSIN...


CITY           SKY/WX    TMP DP  RH WIND       PRES   REMARKS
LA CROSSE      LGT RAIN  37  36  96 N7        29.91S FOG     WCI  32
PRAIRIE DU CHI LGT RAIN  39  38  97 CALM      29.87S
BOSCOBEL       CLOUDY    40  39  97 NE3       29.88S FOG
LONE ROCK      NOT AVBL
PLATTEVILLE    CLOUDY    41  41 100 NE10      29.84S VSB 1/2
FORT MC COY    CLOUDY    35  35  99 NE6       29.91F FOG     WCI  30
MAUSTON-NEW LI CLOUDY    37  36  97 CALM      29.90S FOG
VIROQUA        CLOUDY    36  36 100 NE7       29.87S WCI  30
WIS DELLS      FOG       37  36  98 NE7       29.89S VSB 1/2 WCI  31
$$

...ELSEWHERE IN WISCONSIN...


CITY           SKY/WX    TMP DP  RH WIND       PRES   REMARKS
MILWAUKEE      RAIN      39  38  96 NE10      29.91S VSB 1/2 WCI  32
MADISON        DRZL/FOG  40  40 100 NE8       29.88S VSB 1/4 WCI  34
GREEN BAY      LGT RAIN  35  35 100 NE9       29.96S WCI  28
EAU CLAIRE     NOT AVBL
BLACK RVR FLS  RAIN      35  35 100 NE6       29.93S WCI  30
MEDFORD        CLOUDY    32  32  99 E6        29.93R WCI  26
WAUSAU         MIX PCPN  32  32 100 E8        29.93S FOG     WCI  25
WIS RAPIDS     CLOUDY    34  34 100 E9        29.94S WCI  27
MARSHFIELD     LGT RAIN  33  32  96 E8        29.91F VSB 1   WCI  26
RICE LAKE      CLOUDY    34  34  99 CALM      29.97S
$$

...NORTHEAST IOWA...


CITY           SKY/WX    TMP DP  RH WIND       PRES   REMARKS
WATERLOO       CLOUDY    39  38  96 NE8       29.85S FOG     WCI  33
DUBUQUE        FOG       41  41 100 NE9       29.83S VSB<1/4
DECORAH        LGT RAIN  36  36 100 NE5       29.86F WCI  32
MASON CITY     CLOUDY    37  35  92 N8        29.89S WCI  31
CHARLES CITY   CLOUDY    37  37 100 NE10      29.87S WCI  30
OELWEIN        FOG       39  39 100 NE8G15    29.85S VSB 1/4 WCI  34
$$

...ELSEWHERE IN IOWA...


CITY           SKY/WX    TMP DP  RH WIND       PRES   REMARKS
DES MOINES     FOG       41  40  96 N5        29.86R VSB 3/4
IOWA CITY      FOG       46  45  96 NE7       29.83R VSB 1/4
FORT DODGE     CLOUDY    37  36  93 N5        29.89S WCI  34
MARSHALLTOWN   FOG       39  39 100 N8        29.85R VSB 1/2 WCI  33
CEDAR RAPIDS   FOG       43  43 100 NE9       29.81S VSB 1/4
$$

...NORTHERN ILLINOIS...


CITY           SKY/WX    TMP DP  RH WIND       PRES   REMARKS
CHICAGO-OHARE  HVY RAIN  50  47  89 E3        29.85S VSB 1
CHICAGO-MIDWAY LGT RAIN  52  52 100 SE9       29.86S FOG
MOLINE         FOG       50  49  96 E3        29.81R VSB<1/4
ROCKFORD       FOG       47  46  97 E3        29.86S VSB 1/4
PEORIA         CLOUDY    53  51  93 S10       29.83R
$$

NOTE: "FAIR" INDICATES FEW OR NO CLOUDS BELOW 12,000 FEET WITH NO
SIGNIFICANT WEATHER AND/OR OBSTRUCTIONS TO VISIBILITY. WIND
SPEEDS ARE IN MILES-PER-HOUR.




USA.gov is the U.S. government's official web portal to all federal, state and local government web resources and services.